GW3498 Weather Reports


Display with metric or nautical units.
time (UTC)temp
F
wind
direction
speed
MPH
gust
MPH
rain 1hr
in
rain 24hr
in
rain mn
in
humidity
%
barometer
mb
20260906022546 70 33 0.0 1.0 0.00 0.00 0.00 87 1020.0
20260906021520 70 51 0.0 1.0 0.00 0.00 0.00 87 1020.0
20260906020534 70 0.0 0.0 0.00 0.00 0.00 85 1019.8
20260906015529 70 43 0.0 1.0 0.00 0.00 0.00 86 1019.9
20260906014523 70 0.0 0.0 0.00 0.00 0.00 85 1019.8
20260906013519 71 0.0 0.0 0.00 0.00 0.00 83 1019.9
20260906012553 72 354 0.0 2.0 0.00 0.00 0.00 83 1020.0
20260906011527 71 22 0.0 2.0 0.00 0.00 0.00 82 1020.1
20260906010522 71 0.0 0.0 0.00 0.00 0.00 81 1020.1
20260906005517 70 0.0 0.0 0.00 0.00 0.00 83 1019.9
20260906004532 70 0.0 0.0 0.00 0.00 0.00 83 1019.9
20260906003526 71 0.0 0.0 0.00 0.00 0.00 81 1020.0
20260906002521 71 0.0 0.0 0.00 0.00 0.00 82 1020.1
20260906001535 72 0.0 0.0 0.00 0.00 0.00 80 1020.1
20260906000529 73 147 0.0 1.0 0.00 0.00 0.00 78 1020.2
20260905235524 73 18 1.0 3.0 0.00 0.00 0.00 77 1020.3
20260905234542 74 65 0.0 1.0 0.00 0.00 0.00 77 1020.3
20260905233534 74 357 1.0 3.0 0.00 0.00 0.00 77 1020.3
20260905232529 74 358 1.0 3.0 0.00 0.00 0.00 77 1020.3
20260905231526 74 8 1.0 3.0 0.00 0.00 0.00 76 1020.2
20260905230519 74 348 2.0 4.0 0.00 0.00 0.00 76 1020.1
20260905225533 74 337 1.0 2.0 0.00 0.00 0.00 76 1020.3
20260905224528 74 357 2.0 3.0 0.00 0.00 0.00 76 1020.4
20260905223524 74 357 2.0 3.0 0.00 0.00 0.00 75 1020.3
20260905222516 74 349 1.0 4.0 0.00 0.00 0.00 75 1020.4
20260905221532 74 353 1.0 3.0 0.00 0.00 0.00 74 1020.3
20260905220527 74 353 2.0 3.0 0.00 0.00 0.00 74 1020.3
20260905215522 75 28 1.0 3.0 0.00 0.00 0.00 73 1020.3
20260905214518 75 350 2.0 6.0 0.00 0.00 0.00 74 1020.1
20260905213552 74 356 2.0 4.0 0.00 0.00 0.00 74 1020.2
20260905212525 74 7 0.0 2.0 0.00 0.00 0.00 75 1020.2
20260905211519 74 150 0.0 1.0 0.00 0.00 0.00 76 1020.2
20260905205529 74 85 0.0 2.0 0.00 0.00 0.00 77 1020.1
20260905204526 74 21 2.0 6.0 0.00 0.00 0.00 78 1020.0
20260905203518 74 266 1.0 3.0 0.00 0.00 0.00 77 1020.0
20260905202533 75 355 2.0 4.0 0.00 0.00 0.00 76 1020.1
20260905201527 75 345 2.0 6.0 0.00 0.00 0.00 75 1020.2
20260905200522 75 321 1.0 3.0 0.00 0.00 0.00 75 1020.1
20260905195517 75 339 3.0 6.0 0.00 0.00 0.00 74 1020.3
20260905194531 75 271 2.0 4.0 0.00 0.00 0.00 73 1020.0
20260905193526 76 359 2.0 9.0 0.00 0.00 0.00 72 1020.1
20260905192540 76 343 1.0 4.0 0.00 0.00 0.00 71 1019.9
20260905191534 76 348 2.0 7.0 0.00 0.00 0.00 71 1019.8
20260905190529 77 343 2.0 7.0 0.00 0.00 0.00 69 1019.9
20260905185543 77 343 3.0 9.0 0.00 0.00 0.00 64 1019.8
20260905184517 78 348 3.0 7.0 0.00 0.00 0.00 63 1019.6
20260905183532 78 355 2.0 8.0 0.00 0.00 0.00 62 1019.5
20260905182646 79 359 3.0 8.0 0.00 0.00 0.00 62 1019.5
20260905181541 79 350 2.0 8.0 0.00 0.00 0.00 60 1019.5
20260905180516 80 345 1.0 3.0 0.00 0.00 0.00 55 1019.4
20260905175531 81 359 2.0 4.0 0.00 0.00 0.00 52 1019.3
20260905174526 81 347 3.0 6.0 0.00 0.00 0.00 50 1019.3
20260905173520 82 343 3.0 7.0 0.00 0.00 0.00 50 1019.1
20260905172535 82 348 2.0 6.0 0.00 0.00 0.00 50 1019.1
20260905171549 83 358 1.0 4.0 0.00 0.00 0.00 50 1019.1
20260905170524 83 18 2.0 4.0 0.00 0.00 0.00 49 1019.0
20260905165518 84 9 2.0 6.0 0.00 0.00 0.00 49 1019.1
20260905164535 85 311 2.0 7.0 0.00 0.00 0.00 47 1019.0
20260905163526 86 342 1.0 3.0 0.00 0.00 0.00 45 1019.1
20260905162521 87 285 1.0 6.0 0.00 0.00 0.00 41 1018.9
20260905161517 88 234 1.0 6.0 0.00 0.00 0.00 39 1019.0
20260905160533 88 216 1.0 3.0 0.00 0.00 0.00 41 1019.0
20260905155527 88 263 1.0 6.0 0.00 0.00 0.00 43 1019.0
20260905154521 89 344 2.0 7.0 0.00 0.00 0.00 44 1019.2
20260905153516 89 235 1.0 4.0 0.00 0.00 0.00 43 1019.1
20260905152531 88 256 1.0 6.0 0.00 0.00 0.00 46 1019.1
20260905151525 88 1 3.0 8.0 0.00 0.00 0.00 47 1019.0
20260905150519 89 340 3.0 8.0 0.00 0.00 0.00 46 1019.3
20260905145534 89 218 2.0 3.0 0.00 0.00 0.00 43 1019.1
20260905144548 89 356 4.0 8.0 0.00 0.00 0.00 42 1019.2
20260905143523 90 283 3.0 7.0 0.00 0.00 0.00 39 1019.1
20260905142518 91 234 2.0 6.0 0.00 0.00 0.00 37 1019.2
20260905141553 92 270 2.0 6.0 0.00 0.00 0.00 36 1019.2
20260905140548 91 332 2.0 7.0 0.00 0.00 0.00 35 1019.1
20260905135521 92 280 2.0 6.0 0.00 0.00 0.00 34 1019.3
20260905134535 93 293 2.0 6.0 0.00 0.00 0.00 33 1019.3
20260905133531 93 272 3.0 8.0 0.00 0.00 0.00 31 1019.2
20260905132546 93 254 2.0 3.0 0.00 0.00 0.00 31 1019.4
20260905131519 93 234 2.0 6.0 0.00 0.00 0.00 32 1019.4
20260905130554 93 252 2.0 7.0 0.00 0.00 0.00 33 1019.3
20260905125528 93 8 3.0 8.0 0.00 0.00 0.00 32 1019.4
20260905124523 94 255 2.0 3.0 0.00 0.00 0.00 32 1019.4
20260905123519 94 217 1.0 3.0 0.00 0.00 0.00 31 1019.4
20260905122533 95 311 1.0 2.0 0.00 0.00 0.00 29 1019.6
20260905121547 93 14 2.0 7.0 0.00 0.00 0.00 31 1019.7
20260905120521 94 340 1.0 4.0 0.00 0.00 0.00 31 1019.7
20260905115517 92 164 2.0 6.0 0.00 0.00 0.00 31 1019.8
20260905114531 93 228 2.0 4.0 0.00 0.00 0.00 31 1019.7
20260905113526 92 186 1.0 3.0 0.00 0.00 0.00 31 1019.8
20260905112520 92 138 2.0 4.0 0.00 0.00 0.00 31 1019.7
20260905111555 92 149 2.0 4.0 0.00 0.00 0.00 30 1019.8
20260905110531 92 193 1.0 7.0 0.00 0.00 0.00 31 1019.9
20260905105523 91 185 2.0 4.0 0.00 0.00 0.00 30 1019.9
20260905104518 92 261 1.0 4.0 0.00 0.00 0.00 30 1019.9
20260905103533 91 210 1.0 3.0 0.00 0.00 0.00 29 1019.9
20260905102527 92 205 2.0 3.0 0.00 0.00 0.00 29 1019.9
20260905101522 91 198 2.0 6.0 0.00 0.00 0.00 30 1020.1
20260905100517 91 191 1.0 3.0 0.00 0.00 0.00 30 1020.2
20260905095532 91 195 1.0 4.0 0.00 0.00 0.00 34 1020.2
20260905094526 91 146 1.0 3.0 0.00 0.00 0.00 33 1020.2
20260905093521 91 152 0.0 2.0 0.00 0.00 0.00 32 1020.1
20260905092534 91 177 1.0 3.0 0.00 0.00 0.00 33 1020.1
20260905091534 90 196 0.0 2.0 0.00 0.00 0.00 32 1020.2
20260905090524 90 193 1.0 3.0 0.00 0.00 0.00 34 1020.1
20260905085519 89 178 1.0 3.0 0.00 0.00 0.00 36 1020.2
20260905084536 88 163 0.0 1.0 0.00 0.00 0.00 37 1020.2
20260905083528 88 158 0.0 1.0 0.00 0.00 0.00 38 1020.2
20260905082523 87 163 1.0 2.0 0.00 0.00 0.00 40 1020.1
20260905081517 87 164 1.0 2.0 0.00 0.00 0.00 40 1019.9
20260905080534 86 163 1.0 2.0 0.00 0.00 0.00 41 1019.9
20260905075527 86 178 0.0 2.0 0.00 0.00 0.00 41 1019.7
20260905074522 85 161 0.0 1.0 0.00 0.00 0.00 41 1020.0
20260905073517 83 180 0.0 1.0 0.00 0.00 0.00 44 1019.9
20260905072531 80 147 0.0 1.0 0.00 0.00 0.00 45 1020.0
20260905071526 78 124 0.0 2.0 0.00 0.00 0.00 47 1020.1
20260905070522 77 0.0 0.0 0.00 0.00 0.00 53 1020.0
20260905065519 76 0.0 0.0 0.00 0.00 0.00 55 1019.9
20260905064532 75 70 0.0 1.0 0.00 0.00 0.00 59 1019.9
20260905063527 74 0.0 0.0 0.00 0.00 0.00 63 1019.7
20260905062523 73 0.0 0.0 0.00 0.00 0.00 63 1019.7
20260905061516 73 23 0.0 1.0 0.00 0.00 0.00 64 1019.6
20260905060551 72 31 0.0 1.0 0.00 0.00 0.00 64 1019.5
20260905055546 71 0.0 0.0 0.00 0.00 0.00 66 1019.4
20260905054520 71 0.0 0.0 0.00 0.00 0.00 65 1019.4
20260905053535 69 0.0 0.0 0.00 0.00 0.00 67 1019.3
20260905052529 69 0.0 0.0 0.00 0.00 0.00 67 1019.3
20260905051524 69 163 0.0 1.0 0.00 0.00 0.00 67 1019.0
20260905050518 69 0.0 0.0 0.00 0.00 0.00 65 1019.0
20260905045533 70 178 0.0 1.0 0.00 0.00 0.00 64 1019.0
20260905044549 73 151 0.0 1.0 0.00 0.00 0.00 60 1018.9
20260905043523 73 13 1.0 1.0 0.00 0.00 0.00 56 1018.8
20260905042518 71 27 1.0 1.0 0.00 0.00 0.00 61 1018.8
20260905041534 71 0.0 0.0 0.00 0.00 0.00 63 1018.8
20260905040527 72 0.0 0.0 0.00 0.00 0.00 62 1018.8
20260905035522 72 0.0 0.0 0.00 0.00 0.00 61 1018.7
20260905034517 74 194 0.0 1.0 0.00 0.00 0.00 57 1018.8
20260905033532 77 34 0.0 1.0 0.00 0.00 0.00 51 1018.7
20260905032527 76 39 0.0 1.0 0.00 0.00 0.00 53 1018.7
20260905031521 75 37 1.0 1.0 0.00 0.00 0.00 54 1018.7
20260905030536 73 0.0 0.0 0.00 0.00 0.00 58 1018.9
20260905025530 71 69 0.0 1.0 0.00 0.00 0.00 60 1019.0
20260905024545 71 0.0 0.0 0.00 0.00 0.00 60 1018.9
20260905023520 72 0.0 0.0 0.00 0.00 0.00 59 1019.0